FW4495 Weather Reports


Display with metric or nautical units.
time (UTC)temp
F
wind
direction
speed
MPH
gust
MPH
rain 1hr
in
rain 24hr
in
rain mn
in
humidity
%
barometer
mb
20260510154553 77 164 3.0 9.0 0.00 0.00 0.00 55 1014.6
20260510153041 76 175 2.0 8.0 0.00 0.00 0.00 56 1014.4
20260510151544 76 9 3.0 6.0 0.00 0.00 0.00 56 1014.5
20260510150049 75 265 3.0 9.0 0.00 0.00 0.00 59 1014.3
20260510144537 75 232 3.0 7.0 0.00 0.00 0.00 56 1014.0
20260510143034 74 233 1.0 3.0 0.00 0.00 0.00 60 1013.9
20260510141528 72 249 2.0 5.0 0.00 0.00 0.00 63 1013.9
20260510140023 71 173 0.0 3.0 0.00 0.00 0.00 68 1014.0
20260510134520 70 172 0.0 4.0 0.00 0.00 0.00 71 1013.9
20260510133014 69 172 2.0 4.0 0.00 0.00 0.00 74 1014.0
20260510131511 67 244 1.0 3.0 0.00 0.00 0.00 78 1014.2
20260510130006 65 260 0.0 4.0 0.00 0.00 0.00 81 1014.5
20260510124501 63 317 0.0 3.0 0.00 0.00 0.00 84 1014.4
20260510123101 62 337 0.0 2.0 0.00 0.00 0.00 87 1014.4
20260510121553 59 337 2.0 4.0 0.00 0.00 0.00 89 1014.2
20260510120049 58 327 2.0 4.0 0.00 0.00 0.00 91 1014.2
20260510114551 56 291 1.0 4.0 0.00 0.00 0.00 92 1014.1
20260510113040 55 290 1.0 3.0 0.00 0.00 0.00 93 1013.9
20260510111538 55 229 0.0 1.0 0.00 0.00 0.00 94 1013.5
20260510110040 54 228 0.0 1.0 0.00 0.00 0.00 94 1012.9
20260510104527 53 228 0.0 1.0 0.00 0.00 0.00 94 1012.7
20260510103022 52 228 0.0 2.0 0.00 0.00 0.00 93 1012.8
20260510101519 52 228 1.0 3.0 0.00 0.00 0.00 93 1012.6
20260510100017 52 228 0.0 2.0 0.00 0.00 0.00 93 1012.5
20260510094534 52 228 0.0 2.0 0.00 0.00 0.00 93 1012.5
20260510093014 52 228 0.0 2.0 0.00 0.00 0.00 93 1012.5
20260510091513 52 228 0.0 2.0 0.00 0.00 0.00 93 1012.3
20260510090012 52 228 0.0 2.0 0.00 0.00 0.00 92 1012.2
20260510084517 53 228 0.0 3.0 0.00 0.00 0.00 92 1012.0
20260510083006 53 228 0.0 2.0 0.00 0.00 0.00 92 1011.7
20260510081505 53 228 1.0 2.0 0.00 0.00 0.00 93 1011.4
20260510080007 53 228 1.0 2.0 0.00 0.00 0.00 92 1011.3
20260510074601 54 228 0.0 2.0 0.00 0.00 0.00 92 1011.2
20260510073059 54 228 1.0 3.0 0.00 0.00 0.00 92 1011.0
20260510071600 54 225 0.0 1.0 0.00 0.00 0.00 92 1010.9
20260510070058 54 225 0.0 1.0 0.00 0.00 0.00 92 1010.9
20260510064604 54 190 0.0 0.0 0.00 0.00 0.00 92 1011.0
20260510063054 55 190 0.0 0.0 0.00 0.00 0.00 92 1010.9
20260510061558 55 190 0.0 0.0 0.00 0.00 0.00 92 1010.8
20260510060051 55 190 0.0 2.0 0.00 0.00 0.00 91 1010.7
20260510054550 55 190 0.0 1.0 0.00 0.00 0.00 91 1010.7
20260510053047 56 190 0.0 0.0 0.00 0.00 0.00 91 1011.0
20260510051557 56 190 0.0 2.0 0.00 0.00 0.00 91 1011.0
20260510050044 56 190 0.0 1.0 0.00 0.00 0.00 90 1011.0
20260510044547 56 190 0.0 1.0 0.00 0.00 0.00 89 1011.0
20260510043043 57 190 0.0 0.0 0.00 0.00 0.00 89 1011.1
20260510041542 57 190 0.0 2.0 0.00 0.00 0.00 89 1011.0
20260510040036 58 190 0.0 2.0 0.00 0.00 0.00 88 1011.0
20260510034536 58 190 0.0 1.0 0.00 0.00 0.00 88 1010.9
20260510033035 59 190 0.0 1.0 0.00 0.00 0.00 87 1010.8
20260510031536 59 190 0.0 2.0 0.00 0.00 0.00 86 1010.8
20260510030044 60 190 0.0 1.0 0.00 0.00 0.00 86 1010.7
20260510024533 60 190 0.0 1.0 0.00 0.00 0.00 85 1010.7
20260510023032 61 190 0.0 1.0 0.00 0.00 0.00 84 1010.8
20260510021534 61 190 0.0 2.0 0.00 0.00 0.00 83 1010.7
20260510020031 61 190 0.0 1.0 0.00 0.00 0.00 82 1010.5
20260510014532 62 190 0.0 2.0 0.00 0.00 0.00 81 1010.4
20260510013031 63 190 0.0 2.0 0.00 0.00 0.00 79 1010.3
20260510011531 64 190 0.0 2.0 0.00 0.00 0.00 78 1010.1
20260510010028 64 191 0.0 2.0 0.00 0.00 0.00 76 1010.1
20260510004528 65 191 0.0 3.0 0.00 0.00 0.00 75 1009.9
20260510003035 65 191 0.0 4.0 0.00 0.00 0.00 75 1009.6
20260510001526 65 182 1.0 5.0 0.00 0.00 0.00 74 1009.6
20260510000026 66 207 3.0 6.0 0.00 0.00 0.00 74 1009.4
20260509234531 66 252 1.0 7.0 0.00 0.00 0.00 74 1009.3
20260509233024 66 168 2.0 5.0 0.00 0.00 0.00 73 1009.3
20260509231524 67 180 1.0 7.0 0.00 0.00 0.00 71 1009.3
20260509230023 68 168 4.0 8.0 0.00 0.00 0.00 69 1009.2
20260509224522 68 146 2.0 7.0 0.00 0.00 0.00 69 1009.1
20260509223021 69 152 1.0 6.0 0.00 0.00 0.00 69 1009.3
20260509221521 69 150 2.0 5.0 0.00 0.00 0.00 69 1009.2
20260509220026 69 119 2.0 5.0 0.00 0.00 0.00 71 1009.2
20260509214521 69 107 2.0 5.0 0.00 0.00 0.00 71 1009.2
20260509213143 69 121 3.0 8.0 0.00 0.00 0.00 70 1009.2
20260509211518 70 99 3.0 7.0 0.00 0.00 0.00 68 1009.0
20260509210021 70 121 1.0 3.0 0.00 0.00 0.00 69 1008.9
20260509204520 69 119 2.0 7.0 0.00 0.00 0.00 69 1008.9
20260509203015 69 55 2.0 5.0 0.00 0.00 0.00 71 1009.1
20260509201514 69 116 1.0 5.0 0.00 0.00 0.00 72 1009.2
20260509200014 69 133 0.0 4.0 0.00 0.00 0.00 73 1009.4
20260509194516 69 133 0.0 4.0 0.00 0.00 0.00 71 1009.5
20260509193013 68 144 2.0 6.0 0.00 0.00 0.00 74 1009.6
20260509191516 68 92 4.0 6.0 0.00 0.00 0.00 72 1009.9
20260509190014 67 238 1.0 2.0 0.00 0.00 0.00 76 1010.3
20260509184506 67 239 0.0 4.0 0.00 0.00 0.00 72 1010.7
20260509183004 70 187 3.0 6.0 0.00 0.00 0.00 65 1010.7
20260509181502 71 199 2.0 7.0 0.00 0.00 0.00 58 1010.6
20260509174600 70 249 3.0 12.0 0.00 0.00 0.00 58 1010.9
20260509173058 70 240 4.0 15.0 0.00 0.00 0.00 58 1010.9
20260509171557 70 245 4.0 15.0 0.00 0.00 0.00 56 1011.0
20260509170058 71 143 3.0 11.0 0.00 0.00 0.00 57 1011.0
20260509164556 70 215 4.0 13.0 0.00 0.00 0.00 57 1011.0
20260509163055 71 121 3.0 17.0 0.00 0.00 0.00 56 1011.0
20260509161554 72 259 4.0 17.0 0.00 0.00 0.00 58 1011.1
20260509160052 70 207 7.0 15.0 0.00 0.00 0.00 60 1011.3